Location: Augirein
(42.9320°N, 0.9181°E)
Time: 20:08:02
(UTC+00:00)

Cosmos 1356 - Pass Details

Date: 20 June 2021
Orbit: 438 x 439 km, 81.1° (Epoch: 02 August)

Event Time Altitude Azimuth Distance (km) Brightness Sun altitude
Exits shadow 00:38:07 55° 6° (N) 536 4.0 -23.0°
Drops below altitude 10° 00:40:50 10° 10° (N) 1,559 7.3 -22.9°
Sets 00:42:54 0° 10° (N) 2,434 8.6 -22.8°
